| time (UTC) | temp C | wind direction | speed KPH | gust KPH | rain 1hr cm | rain 24hr cm | rain mn cm | humidity % | barometer mb |
| 20260502210122 | 22 | 268 | 4.8 | 16.1 | 0.00 | 0.00 | 0.00 | 20 | 1013.9 |
| 20260502200122 | 20 | 320 | 9.7 | 17.7 | 0.00 | 0.00 | 0.00 | 22 | 1014.5 |
| 20260502193121 | 20 | 245 | 3.2 | 17.7 | 0.00 | 0.00 | 0.00 | 24 | 1014.9 |
| 20260502190120 | 20 | 305 | 4.8 | 12.9 | 0.00 | 0.00 | 0.00 | 25 | 1015.3 |
| 20260502183120 | 19 | 323 | 9.7 | 12.9 | 0.00 | 0.00 | 0.00 | 26 | 1015.6 |
| 20260502180156 | 18 | 9 | 3.2 | 16.1 | 0.00 | 0.00 | 0.00 | 28 | 1016.0 |
| 20260502163148 | 14 | 270 | 0.0 | 9.7 | 0.00 | 0.00 | 0.00 | 34 | 1016.6 |
| 20260502160147 | 12 | 255 | 3.2 | 8.0 | 0.00 | 0.00 | 0.00 | 43 | 1016.7 |
| 20260502150146 | 8 | 316 | 1.6 | 8.0 | 0.00 | 0.00 | 0.00 | 58 | 1016.7 |
| 20260502130144 | 1 | 181 | 0.0 | 11.3 | 0.00 | 0.00 | 0.00 | 71 | 1016.5 |
| 20260502120143 | 1 | 177 | 0.0 | 6.4 | 0.00 | 0.00 | 0.00 | 68 | 1016.6 |
| 20260502113142 | 2 | 155 | 1.6 | 9.7 | 0.00 | 0.00 | 0.00 | 66 | 1017.1 |
| 20260502110142 | 2 | 113 | 4.8 | 4.8 | 0.00 | 0.00 | 0.00 | 64 | 1016.9 |
| 20260502100141 | 3 | 169 | 1.6 | 8.0 | 0.00 | 0.00 | 0.00 | 62 | 1016.6 |
| 20260502090140 | 5 | 132 | 0.0 | 3.2 | 0.00 | 0.00 | 0.00 | 60 | 1016.9 |
| 20260502070138 | 5 | 180 | 0.0 | 4.8 | 0.00 | 0.00 | 0.00 | 57 | 1016.4 |
| 20260502063137 | 6 | 179 | 3.2 | 9.7 | 0.00 | 0.00 | 0.00 | 55 | 1016.3 |
| 20260502060137 | 6 | 186 | 0.0 | 3.2 | 0.00 | 0.00 | 0.00 | 53 | 1016.3 |
| 20260502053136 | 7 | 186 | 0.0 | 9.7 | 0.00 | 0.00 | 0.00 | 53 | 1015.9 |
| 20260502050135 | 9 | 271 | 1.6 | 4.8 | 0.00 | 0.00 | 0.00 | 46 | 1016.7 |
| 20260502043135 | 10 | 150 | 0.0 | 3.2 | 0.00 | 0.00 | 0.00 | 42 | 1016.0 |
| 20260502040136 | 11 | 150 | 0.0 | 8.0 | 0.00 | 0.00 | 0.00 | 39 | 1016.5 |
| 20260502033134 | 13 | 134 | 1.6 | 6.4 | 0.00 | 0.00 | 0.00 | 33 | 1015.8 |
| 20260502030133 | 15 | 131 | 4.8 | 8.0 | 0.00 | 0.00 | 0.00 | 30 | 1016.1 |
| 20260502023133 | 17 | 116 | 3.2 | 9.7 | 0.00 | 0.00 | 0.00 | 25 | 1015.5 |
| 20260502020132 | 18 | 72 | 3.2 | 9.7 | 0.00 | 0.00 | 0.00 | 23 | 1016.2 |
| 20260502013132 | 20 | 78 | 4.8 | 11.3 | 0.00 | 0.00 | 0.00 | 21 | 1015.6 |
| 20260502010132 | 20 | 50 | 4.8 | 9.7 | 0.00 | 0.00 | 0.00 | 18 | 1015.9 |
| 20260502003131 | 21 | 40 | 0.0 | 8.0 | 0.00 | 0.00 | 0.00 | 19 | 1015.3 |
| 20260501233130 | 20 | 226 | 3.2 | 16.1 | 0.00 | 0.00 | 0.00 | 15 | 1015.6 |
| 20260501230129 | 20 | 238 | 3.2 | 14.5 | 0.00 | 0.00 | 0.00 | 16 | 1015.9 |
| 20260501223129 | 20 | 106 | 9.7 | 17.7 | 0.00 | 0.00 | 0.00 | 20 | 1016.2 |
| 20260501220128 | 20 | 90 | 1.6 | 14.5 | 0.00 | 0.00 | 0.00 | 20 | 1016.7 |